Theta_e
358 355 357 355 356 353 346 340 317 324 321 312 314 318 315 328 329 324 322 328 323 330 334 336 334 332 330 327 327 329 331 323 327 315 311 329 347 347 349 349 350 350 350 351 353 356 356 360 362 362 363 363 363 362 363 363 364 365 366 366 366 367 367 367 367 367 367 367 366 365 364 363 364 364 364 363 363 363 363 363 363 363 362 361 361 360 359 359 360 360 359 357 359 360 360 360 360
356 356 357 357 352 346 332 340 322 319 318 312 312 319 319 325 324 321 321 324 324 330 335 335 335 335 334 332 332 332 329 332 334 332 337 344 347 348 350 350 351 349 350 351 354 355 357 359 363 362 362 363 363 363 364 364 364 365 366 366 367 367 367 366 367 367 367 366 365 365 364 364 364 364 364 363 363 363 363 363 363 362 362 362 362 359 360 359 358 358 358 359 360 361 361 359 360
355 357 353 354 348 343 338 335 314 307 305 302 307 315 324 321 320 323 325 326 329 333 334 334 335 333 331 331 327 329 321 337 336 338 338 346 341 344 350 351 352 351 351 352 354 355 356 358 362 362 362 364 363 364 364 364 364 365 366 366 367 367 367 367 367 367 366 366 365 365 364 364 364 363 363 363 363 363 363 362 362 361 362 362 361 359 360 359 360 359 361 360 360 360 359 360 360
358 357 351 348 335 342 329 327 317 309 305 305 308 316 321 320 321 325 328 330 332 334 334 331 329 335 331 326 328 333 331 331 338 338 336 340 342 348 350 351 353 352 352 353 354 355 356 359 363 362 362 363 363 364 364 364 364 365 365 367 366 366 367 367 367 367 366 366 365 365 364 364 364 364 363 363 363 362 362 361 361 361 361 361 362 361 361 359 360 359 359 360 360 359 360 360 359
356 356 355 345 337 327 325 321 318 312 307 310 307 314 323 322 324 327 328 332 333 333 332 332 330 335 336 332 334 326 327 337 338 342 340 345 350 350 351 352 352 351 351 352 354 356 357 361 363 361 362 363 363 363 364 364 365 365 366 366 366 367 367 367 367 366 366 365 365 365 364 364 364 364 363 363 363 362 361 361 361 361 362 362 361 361 360 360 360 359 359 359 360 360 360 360 360
355 353 356 349 333 340 330 319 315 312 315 316 313 316 322 324 326 328 329 332 333 333 333 331 329 330 330 333 337 331 337 329 338 341 344 344 349 351 351 353 351 351 352 352 354 355 357 362 361 361 362 363 363 364 364 365 365 365 366 366 366 367 366 366 367 366 366 366 365 364 364 365 364 364 364 364 363 362 361 361 361 361 361 361 361 360 361 360 361 360 360 359 359 359 360 360 360
348 347 345 343 340 341 321 318 314 313 318 321 317 320 323 326 329 329 327 328 331 332 335 331 334 332 327 333 337 340 346 343 339 341 347 348 350 351 352 351 351 350 351 353 354 355 358 361 361 362 363 362 364 364 365 365 366 366 366 366 366 366 366 366 366 366 366 365 364 364 364 364 364 364 364 363 362 361 361 361 361 362 362 361 362 361 361 360 360 360 359 359 358 358 358 360 359
355 340 338 329 324 325 318 317 316 317 317 323 324 322 325 329 330 328 326 326 325 327 331 333 333 331 328 338 327 341 346 348 346 349 349 350 350 351 352 351 350 351 352 353 354 357 362 361 362 362 362 362 363 364 365 366 366 366 366 366 367 366 366 366 366 366 365 364 365 364 364 364 364 364 364 363 362 361 362 362 361 360 360 361 360 359 359 361 361 360 359 359 359 359 358 359 360
348 341 344 330 319 320 318 316 316 322 321 324 324 329 332 331 330 327 325 328 329 330 330 331 332 325 329 332 332 340 344 348 349 351 350 350 350 351 351 351 350 350 352 353 355 358 359 361 362 362 362 363 363 364 365 365 365 366 366 367 367 366 366 366 365 365 365 364 364 364 364 364 364 364 363 362 361 360 362 361 359 359 360 360 360 361 361 361 362 362 361 360 359 359 359 358 358
341 339 329 325 320 313 310 311 311 314 320 325 325 325 330 331 328 328 326 326 327 330 331 333 333 327 333 328 332 338 341 347 348 347 349 350 350 351 351 352 352 351 352 353 355 357 358 362 362 362 362 363 363 364 365 365 365 365 366 366 366 366 365 365 365 365 364 364 364 364 364 364 363 363 363 361 361 361 361 360 360 360 360 360 361 361 362 362 363 363 361 361 360 359 358 359 358
328 338 338 323 317 313 310 310 312 315 317 323 325 327 331 331 329 327 327 327 331 329 332 335 330 330 331 331 334 345 347 347 345 344 348 349 350 350 350 352 352 353 352 353 355 357 358 359 363 362 362 363 364 365 365 365 365 365 366 366 366 366 365 365 365 364 364 364 364 364 364 363 363 362 362 361 361 361 360 360 360 360 360 359 360 360 362 362 362 362 362 362 361 361 359 359 359
326 326 330 318 315 310 310 310 315 317 319 319 319 328 331 330 329 326 327 325 329 330 330 334 328 334 329 330 332 342 345 345 345 347 348 350 349 350 351 352 352 353 353 353 356 357 358 359 360 362 362 363 363 364 365 365 365 365 366 366 366 366 365 365 364 364 364 364 364 364 363 363 363 362 362 362 361 360 360 360 359 360 360 361 361 361 361 362 362 361 361 361 361 362 361 360 360
328 330 324 316 311 312 315 314 314 319 318 314 318 327 332 329 327 328 328 328 330 329 329 334 336 335 325 329 338 342 341 344 346 348 349 349 349 350 351 351 352 352 353 355 355 356 358 359 360 359 361 363 363 364 365 365 365 365 365 366 366 366 366 365 364 364 364 364 364 364 363 363 363 363 362 362 361 361 360 360 360 360 361 361 362 361 360 362 361 361 361 361 361 361 361 359 360
330 331 325 313 317 315 315 313 313 312 308 310 322 329 331 328 329 331 330 327 328 328 334 338 336 335 331 333 335 336 339 345 347 348 348 349 350 350 350 351 351 352 353 354 354 355 357 358 359 359 360 360 360 362 364 364 364 365 365 365 366 366 366 365 365 364 364 364 364 364 364 364 363 363 363 362 362 362 362 361 361 362 360 360 362 361 361 360 361 360 361 359 360 360 360 361 360
332 333 325 318 313 312 314 312 310 311 306 317 327 329 329 334 332 332 330 327 328 336 339 342 339 331 325 329 329 334 340 345 347 348 347 348 349 349 350 350 350 351 353 354 354 355 357 357 360 359 360 358 360 359 359 362 365 365 365 366 366 366 366 365 365 364 364 364 364 364 364 364 363 363 363 363 362 362 363 361 362 360 360 361 360 361 361 362 359 361 360 358 360 360 360 360 360
337 334 322 313 310 310 313 312 314 308 306 324 328 330 330 331 334 331 332 333 331 338 338 331 339 330 332 332 333 338 343 345 346 347 347 347 348 349 349 349 350 351 352 353 353 354 356 358 358 358 357 357 359 359 359 359 362 365 366 365 366 365 366 365 365 364 364 364 364 364 364 364 363 363 363 364 364 364 363 362 361 360 359 359 360 361 361 361 362 361 360 359 360 360 361 361 361
340 338 323 317 314 313 313 312 306 302 308 325 330 330 327 328 334 335 338 338 332 333 334 335 335 338 335 336 340 343 344 346 347 346 345 345 345 345 347 348 349 350 351 352 352 354 356 357 357 357 357 358 359 359 359 359 360 364 364 365 365 366 366 365 364 364 364 363 363 363 363 365 361 362 363 363 364 367 362 362 362 360 360 360 359 360 360 362 361 363 362 361 360 360 361 361 361
338 327 323 318 320 316 317 315 309 309 322 324 328 330 328 326 331 333 337 333 333 333 332 335 338 338 340 341 344 345 345 343 344 343 343 342 343 342 343 346 347 346 349 350 352 354 355 356 356 357 356 358 358 359 359 359 360 362 359 361 363 363 365 364 363 361 363 361 362 362 362 364 361 358 359 366 365 366 366 363 362 362 362 362 362 359 359 361 363 363 362 361 360 362 362 365 365
332 322 320 317 319 323 322 321 320 319 322 326 329 330 330 328 331 333 329 327 330 328 329 333 334 337 340 342 343 343 343 342 342 343 342 341 341 341 342 344 345 346 347 349 351 353 354 355 357 357 356 358 358 358 358 358 358 359 357 358 361 364 363 364 360 363 359 359 360 359 363 361 359 359 362 363 366 364 366 363 362 363 363 363 363 360 360 362 363 364 364 362 362 362 366 363 361
334 319 315 319 324 324 324 324 321 319 324 326 327 329 329 330 332 335 328 327 329 326 326 330 331 333 336 339 342 342 341 341 342 342 341 341 341 341 341 342 343 345 347 349 350 354 355 355 356 357 357 357 357 357 357 357 357 357 357 357 358 359 359 361 358 360 359 359 359 358 360 360 361 357 365 364 364 365 363 365 365 364 365 366 364 365 364 363 364 365 366 367 368 365 362 360 360
334 327 320 321 326 324 325 326 325 321 328 328 327 328 327 330 332 331 328 325 325 327 330 330 330 334 336 339 340 341 340 340 341 342 342 341 341 342 342 343 343 345 348 350 351 352 354 355 356 357 358 358 357 357 357 356 356 357 356 357 357 358 358 358 358 359 358 358 357 359 357 360 359 357 357 358 360 360 360 360 361 360 361 360 365 358 359 359 361 358 359 360 358 360 361 357 357
326 328 330 328 327 324 325 325 324 321 328 328 327 326 326 333 332 329 329 323 323 328 331 333 335 337 337 338 340 341 339 339 340 341 341 341 340 340 342 343 345 347 349 348 350 352 354 356 357 357 358 358 357 356 356 357 357 355 355 356 357 357 358 358 358 358 358 357 357 358 360 358 357 358 357 357 358 359 358 358 359 359 359 361 362 359 356 357 357 357 357 356 356 357 358 357 355
323 326 328 330 330 326 328 325 318 323 324 325 325 328 331 330 329 331 330 326 328 334 334 335 338 339 340 341 340 339 338 338 339 340 341 341 341 341 341 343 343 344 347 348 350 352 355 356 357 358 357 357 357 357 357 358 356 356 356 356 356 356 357 357 356 357 357 357 357 359 358 356 356 356 356 356 356 357 357 358 357 358 359 359 361 359 356 356 357 357 356 355 355 355 356 355 352
327 322 325 325 326 326 328 325 324 320 325 325 328 332 329 328 324 330 328 329 331 334 335 337 339 341 341 339 339 338 338 339 339 341 343 342 342 342 342 342 343 346 347 347 350 352 354 355 357 357 357 357 356 357 356 356 357 356 356 359 359 358 357 357 356 357 357 357 357 358 361 357 356 355 356 355 356 356 356 357 357 356 357 358 359 359 357 356 356 356 356 355 354 355 353 351 350
324 323 326 326 327 326 326 325 323 317 324 327 328 328 328 329 327 329 328 329 332 334 336 338 339 339 339 338 338 338 339 340 340 342 344 344 344 345 344 343 343 345 345 346 349 350 352 354 356 356 357 357 356 357 356 356 357 356 356 357 357 360 357 357 357 358 357 358 358 358 361 357 356 355 355 355 356 355 355 355 357 357 356 357 357 357 357 357 356 356 356 356 354 352 349 352 353
326 325 326 325 324 324 324 322 321 321 321 326 326 326 329 330 330 327 329 330 333 335 336 338 338 337 337 337 338 338 339 339 340 341 342 344 344 343 343 343 342 343 345 346 347 349 351 354 354 355 356 356 356 356 355 355 356 356 356 356 357 360 357 357 358 357 357 357 357 358 358 358 357 356 355 355 354 354 354 354 356 356 356 356 356 356 357 357 356 355 354 353 351 349 352 355 355
323 324 326 324 325 324 324 321 321 321 319 324 324 324 325 326 327 320 328 332 334 335 335 337 337 335 336 337 338 339 339 339 340 342 343 343 343 342 343 343 342 342 345 345 347 348 351 352 353 354 355 356 356 355 355 355 356 356 356 356 357 357 358 358 358 357 357 357 357 358 358 359 358 356 355 355 354 353 353 353 354 356 355 355 357 356 357 357 356 355 354 351 351 350 351 351 352
322 322 321 320 320 320 320 320 319 319 317 324 325 323 326 324 324 322 327 333 335 333 334 335 336 335 336 337 338 339 340 341 342 342 341 341 341 342 342 342 341 342 343 344 346 349 350 351 352 353 354 356 355 354 355 354 355 356 357 356 356 357 358 357 356 357 358 357 358 357 357 358 360 357 356 355 354 353 352 353 354 355 355 355 357 356 356 358 357 354 354 354 352 351 351 350 352
318 318 312 312 308 306 309 311 315 318 316 320 325 318 318 318 320 324 331 334 334 333 333 334 334 335 336 337 338 339 339 341 342 341 342 343 343 344 342 344 343 341 343 345 346 348 348 351 351 352 354 355 354 353 354 354 354 355 356 356 356 357 357 357 356 356 356 357 358 357 357 358 360 359 356 355 357 354 353 352 353 355 356 355 356 357 357 357 356 356 355 357 351 348 352 350 351
314 311 306 304 303 303 309 311 315 316 317 318 322 307 312 318 321 328 333 333 333 331 332 334 334 335 336 336 337 338 340 341 341 342 343 344 344 344 343 344 344 343 343 344 346 346 349 351 352 352 353 353 354 353 354 353 354 354 356 356 357 356 356 356 356 356 357 357 357 357 356 357 359 359 357 355 354 354 353 353 353 354 355 356 356 357 356 356 355 353 353 353 357 349 350 349 346
308 310 306 301 299 298 308 311 313 313 314 319 321 308 310 316 319 330 333 334 331 329 331 332 333 334 335 336 337 338 339 341 341 342 343 344 345 345 345 345 345 344 344 344 344 346 349 351 352 351 353 352 355 353 354 353 354 354 354 354 355 355 355 355 356 356 355 356 356 356 357 357 359 358 358 356 353 353 352 352 353 354 355 357 356 357 356 354 353 352 353 349 346 348 348 351 347
303 304 296 295 298 302 307 307 309 306 312 318 317 307 309 311 316 330 333 333 332 329 331 332 332 334 335 336 336 337 338 341 342 343 344 344 345 345 346 345 346 345 344 344 345 346 348 350 353 351 352 352 353 353 353 353 354 354 353 356 354 355 355 355 355 356 356 355 356 355 356 358 359 359 358 356 353 353 353 353 353 355 357 357 356 356 355 353 351 350 353 350 347 346 350 346 344
296 303 298 298 295 297 300 305 308 310 311 312 314 303 304 305 315 330 333 332 331 329 330 331 332 333 334 335 336 337 337 339 341 342 343 344 345 346 346 346 347 346 346 344 344 345 347 350 353 351 350 351 352 353 353 353 354 354 353 354 353 354 354 354 355 356 356 355 355 355 356 357 359 358 358 357 354 353 353 353 354 355 358 357 355 355 354 353 351 350 350 352 347 346 345 346 343
300 296 296 297 298 298 298 303 305 309 311 306 310 308 304 311 322 329 332 332 330 329 330 331 332 333 334 335 335 336 336 337 338 340 342 344 345 346 347 350 348 348 348 347 346 346 346 349 351 351 351 352 352 352 353 353 354 355 354 353 356 353 354 355 355 355 355 355 355 355 356 357 359 359 358 357 355 355 355 354 354 355 357 355 354 354 353 353 352 351 349 350 348 347 346 345 343
298 298 295 296 297 297 299 297 301 304 311 308 307 307 306 318 323 328 330 332 330 329 330 331 331 332 333 334 334 335 336 336 338 341 343 344 344 346 347 348 348 349 349 349 347 347 348 349 351 353 353 352 352 352 353 353 354 354 354 353 352 353 353 354 355 355 355 355 354 355 356 357 359 359 358 357 355 356 356 354 354 355 356 354 353 352 351 352 352 350 348 347 350 348 347 346 343
301 299 298 297 297 298 297 301 303 305 304 306 305 304 307 318 322 326 329 331 329 329 331 331 332 332 333 333 334 334 335 336 339 341 343 344 344 345 346 348 348 349 349 349 349 348 348 349 351 352 353 352 352 352 352 352 352 352 351 351 350 352 353 353 354 354 355 354 354 355 356 357 358 360 358 357 356 356 355 354 354 356 355 353 352 350 349 350 350 349 348 347 345 348 353 345 341
301 298 297 296 296 297 299 300 302 304 304 305 307 306 307 315 323 325 328 330 329 328 328 329 331 331 332 333 333 334 335 336 339 341 342 343 344 345 346 347 347 348 348 349 348 348 348 349 350 350 353 353 352 350 350 350 349 349 350 350 349 350 351 352 353 354 354 354 354 355 356 357 358 360 360 358 356 358 356 355 354 355 355 353 352 351 351 350 350 350 349 352 348 344 343 343 340
301 300 297 297 296 297 301 301 303 305 305 301 307 307 305 312 323 326 328 328 326 327 327 329 330 331 332 332 333 334 335 338 339 339 341 342 343 344 345 346 348 345 347 348 348 348 349 349 350 350 352 352 352 351 351 351 350 350 350 349 350 350 350 351 351 353 353 354 355 355 356 357 357 359 360 359 358 358 356 355 354 354 354 353 352 352 350 352 352 349 347 346 345 344 342 341 342
298 298 298 295 297 298 300 300 301 303 302 300 301 302 305 309 322 326 326 327 328 329 329 329 330 330 331 332 333 334 335 335 337 338 340 341 342 343 344 345 346 347 347 347 348 348 348 349 350 351 352 352 352 352 351 350 351 352 351 351 351 350 353 354 353 354 355 354 354 355 357 357 357 358 360 360 358 358 357 356 355 354 354 354 352 350 351 350 350 349 346 346 343 340 342 343 341
297 294 293 294 297 297 294 297 301 304 302 299 304 303 303 317 322 325 327 328 328 329 330 330 332 331 331 332 333 333 334 334 335 337 338 339 341 342 343 343 345 346 346 347 348 348 348 349 349 350 351 352 352 353 353 352 352 353 353 353 353 352 351 354 354 355 354 354 353 354 356 357 357 358 359 360 360 358 358 356 356 354 354 355 353 350 349 349 348 348 346 345 342 339 336 338 344
298 298 297 296 296 296 297 297 299 300 302 306 306 304 300 310 316 320 325 329 328 328 329 330 331 332 333 334 334 334 334 335 335 336 338 338 339 340 341 343 344 344 345 346 347 347 348 348 349 350 351 352 352 354 353 353 353 352 351 352 353 352 355 353 351 350 352 353 353 353 354 357 358 358 359 360 360 358 358 358 356 355 355 353 353 351 350 349 349 349 347 345 341 339 335 334 340
300 300 300 301 298 297 297 297 297 294 295 298 304 293 294 302 313 317 322 324 325 327 326 327 329 330 331 331 332 334 335 336 336 336 337 338 339 339 341 342 343 344 344 346 347 348 349 349 349 350 351 351 352 352 353 353 351 350 348 347 345 346 346 347 346 347 349 350 351 353 355 357 358 358 359 360 360 360 359 358 357 356 355 353 353 352 351 350 348 347 345 345 341 337 338 334 335
296 301 303 301 299 298 297 297 297 290 291 297 306 295 290 296 306 314 319 321 323 325 325 326 328 329 330 331 332 333 334 335 336 337 338 338 338 338 339 341 342 343 344 346 347 348 349 349 349 349 350 351 352 352 353 353 350 350 348 347 347 346 346 347 350 351 351 351 353 353 354 357 358 358 359 359 360 361 360 358 357 356 356 354 354 352 350 349 347 346 345 342 342 341 336 335 334
297 302 300 300 299 298 297 297 297 294 298 299 301 300 294 292 301 311 318 319 321 322 323 324 327 328 329 330 332 332 333 335 335 336 337 338 338 338 338 340 342 343 345 346 346 347 348 348 349 349 349 351 351 352 352 353 350 350 349 348 348 347 347 347 349 350 352 353 352 353 354 356 358 358 358 359 360 360 360 358 357 356 355 354 354 352 351 349 347 345 345 343 341 341 336 335 334
298 300 301 298 297 297 296 296 294 294 297 293 295 301 294 292 299 307 316 315 317 319 321 323 325 327 328 330 331 332 333 335 335 335 336 336 337 338 339 339 342 344 344 345 345 346 348 348 349 349 349 350 351 352 352 352 352 350 349 348 347 349 349 349 350 351 351 353 351 353 353 354 357 358 358 358 359 360 360 358 356 355 354 354 355 353 351 349 346 343 343 340 338 339 337 337 337
300 300 301 299 298 298 297 294 294 296 292 291 294 298 292 289 294 303 312 315 315 317 321 323 324 325 327 329 330 332 333 334 335 336 336 337 337 338 339 340 341 343 344 346 346 347 347 347 348 348 347 349 350 351 352 351 352 352 349 348 347 347 349 349 349 348 349 350 350 352 353 354 355 356 357 358 359 359 360 359 356 355 354 353 355 353 351 348 345 343 342 341 339 339 338 340 337
300 301 300 300 298 298 296 294 295 293 289 292 296 297 296 290 294 302 304 309 316 318 320 323 324 325 327 328 330 331 331 332 334 335 336 337 338 338 339 339 340 342 343 344 345 345 346 346 347 346 347 348 350 350 351 350 351 351 349 348 348 347 347 347 345 346 347 348 348 350 352 353 355 355 356 357 358 359 359 359 357 355 355 355 355 353 350 349 345 343 342 341 340 339 337 337 342
302 297 296 295 292 293 295 292 293 288 288 292 294 295 297 290 291 301 308 312 317 318 318 320 322 323 325 327 329 330 331 332 333 334 335 336 336 336 338 338 338 340 341 343 344 345 345 346 346 345 346 347 348 350 350 350 350 350 350 349 348 348 348 347 346 345 346 346 348 348 351 353 353 355 356 356 357 358 359 358 358 356 355 354 353 353 351 349 346 343 342 341 340 339 338 340 339
300 295 295 291 281 286 284 287 286 287 287 292 293 295 293 294 295 301 308 310 313 318 320 320 322 323 324 326 328 329 331 331 331 332 334 334 334 334 335 337 338 338 339 341 342 344 345 345 345 345 345 346 347 349 349 350 349 350 350 349 349 349 348 348 347 346 347 347 348 348 350 350 352 353 354 355 356 357 358 357 356 354 354 353 354 352 350 347 345 343 342 340 340 339 338 338 337
297 296 291 289 285 283 278 281 282 282 287 291 293 295 293 293 298 302 305 310 313 315 319 321 322 323 324 325 327 328 330 330 331 332 333 333 334 334 335 336 337 338 339 340 342 343 344 344 345 344 345 346 347 348 349 349 349 350 350 350 349 349 348 348 348 347 347 348 348 348 349 350 351 352 353 354 356 357 357 358 357 356 355 353 353 351 348 346 344 342 342 341 339 340 339 338 338
297 296 295 294 288 283 281 281 283 283 284 288 292 292 287 292 295 303 307 310 314 315 317 319 321 323 324 325 326 327 328 329 331 331 332 332 333 334 334 335 336 337 338 339 341 342 343 344 344 345 344 345 346 347 348 348 349 349 350 350 350 350 349 348 348 348 348 348 348 349 349 351 351 352 354 356 357 357 357 357 357 356 354 352 351 350 348 345 344 343 343 342 342 340 338 338 337
297 298 297 291 294 291 286 284 284 285 287 287 291 289 292 296 301 308 308 309 313 315 315 317 317 320 321 321 322 324 326 328 330 330 331 332 333 334 334 335 336 337 338 339 340 341 342 343 344 344 345 345 346 347 348 348 349 349 349 349 350 350 350 350 349 349 349 349 349 349 349 350 352 353 355 356 356 357 356 356 356 356 354 351 350 348 347 344 343 341 341 341 340 341 338 337 338
294 296 293 297 298 296 292 293 292 291 287 285 290 293 293 297 300 304 306 307 310 313 314 314 315 316 317 317 319 322 325 327 328 329 330 332 333 333 334 335 336 337 337 338 339 341 342 343 343 344 345 345 346 347 347 348 349 349 349 349 350 350 349 349 348 348 348 349 350 350 350 350 352 354 354 356 356 356 356 356 355 355 353 350 349 347 346 345 343 342 341 340 339 340 340 337 338
294 293 296 297 300 299 294 287 287 288 283 284 290 290 288 293 292 302 304 305 307 310 312 314 314 315 314 315 317 320 322 325 327 329 331 332 333 333 334 335 335 336 337 338 340 341 342 343 344 343 344 344 345 346 347 348 348 348 348 349 349 350 349 349 349 349 349 349 349 350 351 351 351 353 355 356 356 355 355 356 354 354 353 351 348 347 346 345 343 341 341 340 340 340 340 339 339
300 297 299 298 288 290 288 288 286 283 283 282 283 288 291 293 294 299 303 304 306 308 312 313 313 313 314 315 315 317 320 323 325 326 328 330 332 333 334 334 335 336 339 339 340 341 342 343 344 344 344 345 345 346 347 349 349 349 349 349 349 349 350 350 350 350 350 349 349 349 350 351 352 354 355 355 354 354 354 354 354 353 352 350 349 347 346 344 343 341 340 340 340 339 338 338 339
301 297 298 298 294 292 288 291 286 288 282 285 282 288 289 295 296 300 303 306 307 308 309 311 314 315 315 316 316 316 317 320 322 324 326 329 331 332 333 334 334 335 337 338 339 340 340 342 343 344 345 345 346 346 348 348 349 349 349 350 350 350 350 350 350 350 349 349 349 350 350 350 351 353 354 354 354 353 353 353 353 352 351 350 349 348 346 344 342 341 340 339 339 339 338 338 338
296 294 293 294 297 295 296 292 292 288 283 282 283 284 289 294 298 303 304 306 309 309 310 312 314 316 316 317 317 318 318 318 321 323 325 327 329 331 333 334 335 336 337 338 339 339 340 341 342 344 344 344 344 345 346 348 349 349 350 349 349 349 350 350 350 350 350 350 350 351 351 351 352 352 353 353 353 353 352 352 352 351 350 348 348 347 347 345 342 341 340 339 339 338 337 337 338
298 297 295 295 292 290 288 286 293 290 289 283 282 286 290 293 302 305 305 307 309 310 311 312 314 316 317 318 319 319 319 319 320 322 324 325 327 330 332 334 335 335 335 336 338 339 340 340 342 343 344 344 344 345 346 347 349 349 349 349 349 350 350 350 350 350 350 350 351 351 351 352 351 352 353 352 352 352 352 351 351 350 350 348 347 347 346 345 342 341 340 339 339 338 338 337 337
Wind_Speed
13 10 6 6 6 5 4 1 0 1 1 2 3 1 3 0 1 1 0 1 1 1 2 8 10 8 3 3 5 5 4 7 1 6 4 1 6 8 7 9 9 8 7 4 3 3 3 6 17 19 19 19 20 20 19 19 19 18 18 18 18 17 17 17 16 16 15 15 15 15 14 14 13 12 11 11 10 9 9 8 9 8 9 9 11 12 9 8 10 10 11 8 7 7 8 7 7
9 9 6 5 5 5 1 1 1 0 1 3 5 1 3 1 1 2 2 4 2 4 4 8 7 7 8 11 10 6 5 5 2 3 3 6 10 6 7 10 11 11 7 5 4 4 4 6 15 18 19 20 20 19 19 18 18 18 18 17 17 17 16 16 16 16 15 15 15 14 14 13 12 11 11 10 9 8 8 8 7 8 8 8 9 10 8 7 9 11 10 6 6 7 7 7 7
10 9 6 4 2 2 2 1 0 1 0 2 3 4 1 1 3 1 4 3 4 7 7 7 9 7 5 6 3 1 1 3 6 5 6 11 14 8 9 9 9 10 8 4 4 4 4 6 14 17 20 19 19 19 18 18 18 17 17 17 16 16 16 15 15 15 15 14 14 13 13 12 12 11 10 9 8 8 7 7 7 7 7 8 8 8 8 7 8 10 9 7 5 5 6 7 7
9 7 7 4 3 1 2 0 1 1 1 3 3 3 2 2 2 2 1 6 8 9 7 9 6 3 4 3 3 6 5 4 3 10 7 12 3 10 10 10 10 7 6 5 4 5 3 9 13 17 19 19 19 18 18 17 17 17 17 16 16 15 15 15 14 14 14 14 13 13 12 12 11 10 9 9 8 7 6 6 6 6 6 7 7 6 6 6 6 8 9 7 6 5 6 7 6
9 7 6 2 1 1 2 1 1 1 2 2 1 2 2 2 1 4 4 6 8 7 7 5 4 4 3 6 1 2 3 6 7 4 6 4 8 10 11 10 9 8 7 5 5 5 6 13 13 17 19 19 18 18 17 16 16 16 16 15 15 15 14 14 14 14 13 13 12 12 11 11 10 10 9 8 7 6 5 5 5 5 6 6 6 5 4 4 5 6 6 6 6 6 5 5 6
7 6 4 1 1 2 1 2 2 4 6 2 0 1 1 1 4 6 6 6 6 4 5 5 3 6 3 3 2 3 9 5 8 5 8 7 13 11 11 11 10 8 7 5 5 5 7 13 16 17 18 18 17 17 16 15 15 15 15 15 14 14 13 13 13 13 12 12 12 11 11 10 9 9 8 8 6 5 4 4 5 5 5 5 5 5 3 3 4 5 5 5 6 6 6 5 5
7 4 2 2 2 2 2 2 5 4 7 6 3 1 4 2 6 8 7 7 3 6 2 3 9 8 6 1 5 4 1 8 7 7 5 11 14 13 11 10 10 9 8 6 4 5 8 15 17 18 18 18 17 16 15 15 15 14 14 14 14 13 13 13 13 13 12 11 11 10 10 9 8 8 7 7 6 5 4 4 5 5 5 5 5 4 4 3 3 3 4 4 4 4 5 5 4
5 1 3 1 1 1 2 4 6 4 4 4 2 2 5 6 6 7 6 3 5 4 4 6 3 6 3 1 3 3 5 3 8 10 12 13 14 13 11 11 11 9 8 5 4 5 12 17 17 18 17 17 16 15 15 14 14 14 13 14 13 13 12 12 12 12 11 11 10 10 9 9 8 7 6 6 5 4 4 4 4 5 5 5 5 4 4 3 3 4 4 4 3 3 4 5 4
4 1 1 1 1 0 3 5 5 3 5 2 3 2 7 8 6 7 5 2 3 5 7 6 3 5 3 7 3 4 4 8 11 13 14 14 15 14 9 10 11 10 8 6 5 5 7 15 17 17 17 16 16 15 14 13 13 13 13 13 13 12 12 12 11 11 11 10 9 9 8 8 7 6 5 5 4 4 4 4 4 5 5 5 5 5 5 5 4 5 5 5 4 3 3 3 4
2 2 0 1 2 3 1 5 2 3 3 3 4 4 8 8 5 4 6 5 3 7 2 3 3 6 7 7 5 3 5 10 14 13 14 13 14 13 11 10 10 12 9 7 5 6 6 15 17 17 16 16 15 14 14 13 13 12 12 12 12 12 12 11 11 10 10 10 9 8 8 7 6 5 5 4 3 3 3 3 3 4 4 5 6 6 6 6 6 5 6 6 5 3 2 2 2
2 1 1 1 1 3 2 5 4 4 2 1 3 4 9 8 7 5 3 4 3 4 4 6 6 9 6 4 3 4 9 11 14 15 15 14 13 14 11 9 9 10 10 8 6 6 7 8 17 17 17 16 15 14 14 13 13 12 12 12 12 12 12 11 11 10 10 9 9 8 7 7 6 5 4 3 3 2 2 2 3 4 4 5 5 5 5 6 6 6 5 6 5 5 3 1 2
2 1 1 3 3 4 4 3 6 7 5 2 2 7 7 10 7 7 6 8 3 5 3 3 6 7 8 5 2 7 10 10 12 14 14 13 11 12 10 8 10 8 9 8 7 6 5 6 8 15 17 16 15 14 14 13 13 12 12 12 12 12 11 11 11 10 9 9 9 8 7 7 6 5 4 3 2 2 1 1 2 3 4 5 5 5 5 5 5 5 5 5 5 5 3 3 2
2 2 2 0 3 2 3 3 5 3 4 2 5 6 10 12 10 8 8 5 5 6 4 2 12 2 4 3 5 9 11 11 12 13 14 10 10 11 9 9 9 9 8 7 7 6 7 6 6 8 12 17 15 14 14 14 13 12 12 12 11 11 11 11 10 10 9 9 9 8 8 7 6 5 4 3 2 1 0 1 2 3 4 4 5 5 4 4 5 4 5 4 3 3 3 2 3
3 4 4 3 0 2 2 3 2 3 3 3 2 10 10 10 8 11 9 8 7 6 1 9 6 6 6 7 6 8 9 12 14 13 11 10 9 9 10 8 9 8 8 7 7 7 8 7 7 6 9 9 8 12 14 14 13 12 12 11 11 11 11 10 10 10 9 9 8 8 8 7 6 5 4 4 3 2 1 1 2 3 4 4 4 5 4 4 4 4 4 4 3 2 2 2 2
2 2 1 2 3 0 3 2 3 2 3 1 4 13 6 0 11 10 14 11 6 2 6 6 5 6 5 11 7 10 11 15 15 14 11 10 10 9 10 9 8 8 7 7 7 7 8 9 7 5 6 6 7 5 5 10 14 13 12 12 12 11 11 11 10 10 9 9 8 8 7 7 6 5 5 4 3 2 2 1 3 3 4 4 5 5 5 4 3 3 3 3 3 2 1 1 1
4 0 0 2 3 1 4 2 2 1 4 3 5 10 7 3 7 12 5 3 4 4 9 5 3 1 3 4 3 13 15 15 14 13 11 11 10 9 9 9 8 7 7 7 7 6 5 8 7 5 6 5 5 4 5 5 11 13 13 12 12 11 11 11 10 10 9 9 8 7 7 5 5 4 5 3 4 3 2 2 2 3 3 4 4 4 4 4 3 3 2 1 1 0 1 1 1
3 1 2 1 7 2 4 3 2 2 2 4 8 11 8 5 4 3 5 3 12 8 5 1 6 1 8 2 13 15 16 15 14 14 12 10 9 8 7 7 7 6 6 7 6 6 6 6 6 5 6 5 5 5 4 5 7 13 11 12 12 12 11 11 10 10 9 7 6 6 5 2 1 1 2 2 3 2 3 3 4 4 4 4 4 4 4 4 3 4 3 1 0 1 2 2 2
4 4 3 6 6 4 4 4 4 1 8 7 10 10 12 9 6 3 8 3 2 8 1 4 6 6 8 10 16 15 16 16 15 15 12 10 9 9 9 8 8 9 8 7 6 7 6 6 6 6 6 6 5 5 4 4 4 9 5 5 5 7 9 9 7 4 5 2 6 4 2 1 2 0 1 3 1 2 4 5 5 5 4 5 5 5 4 4 5 5 4 3 1 2 3 1 2
5 2 3 8 5 5 2 2 3 1 3 11 8 9 12 11 12 7 7 5 11 6 2 5 7 9 11 14 17 16 16 16 15 14 15 14 11 13 11 9 10 9 9 7 7 8 7 6 6 7 7 6 6 5 4 5 4 3 4 4 4 7 5 5 3 4 2 3 1 2 2 2 2 2 0 2 1 3 4 6 6 6 6 5 5 5 5 5 5 5 6 5 4 3 1 0 1
6 3 5 9 5 3 4 3 5 3 6 8 7 6 7 7 6 6 6 9 11 12 10 5 9 10 14 15 17 16 15 16 14 13 14 13 11 12 11 11 10 9 10 9 8 7 7 7 7 7 7 7 6 5 4 5 4 4 4 4 4 4 4 3 4 3 4 3 3 2 2 2 2 2 3 5 5 2 3 5 7 7 7 6 7 4 4 4 6 5 5 6 4 2 1 1 1
4 5 7 4 5 7 6 7 9 2 9 8 7 5 5 7 5 7 10 10 8 7 12 20 15 16 16 17 18 17 16 16 15 13 13 12 10 8 8 9 9 8 8 8 7 8 9 8 7 7 7 7 7 5 5 5 4 4 4 4 4 4 4 3 4 4 4 4 3 2 2 2 2 1 2 2 3 3 2 3 3 4 3 4 4 4 3 3 3 3 3 3 3 2 2 2 1
2 12 11 7 6 4 5 4 4 1 4 9 7 11 7 6 3 6 17 12 10 14 17 10 19 19 20 20 19 17 17 17 16 15 15 15 15 12 10 8 7 6 7 8 9 8 9 8 8 7 8 8 8 6 6 5 5 5 5 4 4 4 4 4 4 4 3 3 3 2 2 2 1 2 2 3 3 3 3 2 3 3 3 4 3 4 3 3 3 2 3 3 3 2 1 1 2
9 6 10 9 9 10 1 2 3 6 3 6 9 8 7 12 7 9 16 14 7 8 10 12 16 21 20 19 20 19 19 18 18 17 16 15 14 12 12 10 11 10 8 8 8 8 8 9 9 7 9 7 8 6 5 5 5 5 5 5 5 4 4 4 3 3 3 4 4 3 3 3 3 3 3 3 4 3 3 3 3 2 3 3 3 3 4 4 3 3 3 3 3 3 2 0 1
10 8 5 9 8 14 8 7 4 3 9 11 6 7 11 11 9 8 13 7 2 8 11 12 13 14 18 19 19 21 21 21 20 17 17 16 16 15 13 12 9 7 8 9 8 8 8 11 10 9 9 8 7 6 6 6 5 5 5 6 5 5 4 4 4 4 3 4 4 3 3 3 4 4 4 3 4 2 4 3 2 3 2 3 2 2 3 4 3 3 3 3 2 1 2 1 1
12 13 10 10 8 10 10 6 5 4 8 7 8 10 12 16 7 9 15 9 2 10 12 14 15 16 16 18 19 17 17 16 16 15 12 10 11 11 9 8 9 8 10 10 9 9 10 9 9 10 9 10 7 7 7 6 5 5 5 5 5 6 4 4 4 4 4 3 3 4 3 4 3 3 4 4 3 4 4 3 3 3 2 3 2 2 2 3 4 3 3 3 2 2 1 0 0
8 13 6 8 8 9 8 5 5 8 3 7 9 11 12 9 6 11 14 5 6 11 13 15 16 18 18 18 19 18 18 19 17 16 16 12 12 13 12 11 10 12 12 10 10 9 9 9 10 10 10 9 8 8 6 6 6 6 6 5 5 6 5 4 5 4 4 4 4 4 4 5 4 4 4 3 3 4 3 3 3 3 3 3 2 3 3 3 4 4 3 1 2 2 1 1 1
2 4 8 11 12 9 7 7 5 10 7 10 12 13 9 7 7 7 5 7 10 12 14 14 17 19 18 17 15 15 18 19 19 14 13 12 13 13 13 12 13 12 10 11 10 9 9 10 10 10 9 10 7 8 7 7 6 6 6 5 5 5 5 5 5 5 5 4 4 4 4 5 5 4 4 4 3 3 3 3 4 3 3 3 3 4 2 3 3 3 3 1 2 2 1 1 2
8 9 10 11 9 10 11 9 7 5 4 14 15 15 12 7 3 11 7 10 14 14 14 15 15 15 16 17 16 14 14 14 13 14 18 17 14 13 14 13 13 11 12 12 10 9 9 11 11 10 10 9 9 9 8 7 7 7 6 5 6 5 5 5 5 5 5 5 5 5 5 4 5 5 4 4 3 3 4 4 4 3 4 3 3 3 3 3 3 3 1 1 2 2 1 0 1
7 7 10 11 6 10 6 5 2 10 4 13 8 2 2 5 17 6 8 11 14 15 14 15 15 14 12 15 14 13 14 14 13 13 16 14 13 13 15 13 13 13 10 12 11 10 12 11 10 11 10 9 10 10 8 7 6 6 6 6 6 6 5 5 5 5 5 5 4 5 5 5 5 5 4 4 4 4 4 4 4 4 4 3 3 4 3 3 2 2 2 2 1 1 1 2 2
3 3 3 8 6 9 10 2 2 8 3 12 10 4 10 16 9 8 11 13 12 13 13 15 12 13 12 12 12 12 12 14 15 15 13 13 13 14 14 14 14 12 10 9 11 12 10 8 8 8 10 10 10 9 8 7 7 7 6 6 6 6 6 6 6 5 5 5 5 6 6 6 5 5 4 4 4 4 4 4 5 5 4 4 3 3 3 3 3 3 3 2 1 1 2 2 2
2 4 0 3 5 7 3 1 3 2 4 16 12 8 9 12 8 8 13 15 17 15 14 14 13 13 13 13 12 13 14 14 15 14 14 13 12 12 13 13 13 12 9 10 14 13 11 10 8 8 10 10 10 10 10 8 7 7 7 6 6 6 6 6 5 5 5 5 5 5 6 6 6 6 5 5 5 4 4 4 5 5 4 3 3 3 4 3 3 4 2 2 3 2 2 1 2
1 5 5 4 4 9 11 1 3 4 1 12 12 7 11 7 11 13 14 15 16 15 15 15 14 13 14 13 13 12 13 12 13 13 14 14 13 12 14 15 14 13 13 13 12 11 12 11 10 10 11 11 11 11 9 9 8 8 7 7 6 6 6 6 6 6 5 5 5 5 6 6 6 6 6 5 5 4 4 5 5 5 5 3 3 3 3 4 4 3 1 2 4 3 2 1 2
2 6 4 6 1 5 10 4 1 4 3 6 14 7 1 3 8 12 14 16 15 14 14 15 15 15 14 14 13 12 11 12 12 14 14 14 13 12 13 13 14 15 13 13 13 12 12 12 12 12 12 13 12 11 10 8 8 8 8 7 7 7 7 6 6 5 5 5 6 6 6 6 6 6 6 6 5 5 5 5 5 5 3 3 3 3 4 3 4 3 1 1 3 4 2 3 2
5 0 4 2 5 4 5 6 3 2 5 4 11 8 4 2 11 14 14 16 15 13 15 15 15 13 14 13 13 13 13 13 16 15 16 15 12 14 12 13 14 14 13 13 13 14 13 12 11 12 10 11 10 10 10 9 8 7 7 7 6 7 7 6 6 6 6 6 6 6 6 6 6 7 7 6 6 5 5 6 5 4 3 3 3 3 4 2 2 2 3 1 2 3 1 3 2
5 3 3 6 1 5 7 4 2 5 2 6 11 14 7 2 6 15 17 17 17 16 16 17 16 14 13 13 13 14 14 16 17 15 16 16 15 14 12 13 13 13 11 13 12 12 11 11 10 11 11 11 11 10 9 8 7 6 5 6 7 7 6 7 6 6 6 6 6 7 6 6 7 7 7 7 6 6 5 5 4 4 4 4 3 3 3 2 1 1 3 2 2 2 3 3 1
6 7 6 4 6 6 6 6 2 2 3 5 5 10 14 4 5 9 13 16 17 15 11 10 11 12 12 12 13 14 15 17 13 13 14 13 12 13 13 12 12 13 12 12 13 12 12 11 10 10 10 10 9 9 8 8 7 7 7 6 7 7 7 7 7 7 6 7 7 7 7 6 7 7 7 7 7 6 6 5 5 4 4 4 4 4 4 3 5 4 4 4 3 1 1 1 1
3 2 1 5 5 7 4 5 4 3 2 7 8 9 9 6 10 13 14 13 11 10 12 13 13 14 14 14 14 15 15 17 13 13 14 14 14 13 12 12 12 13 12 13 13 13 13 13 12 13 11 10 10 10 10 9 9 8 7 9 9 8 7 7 7 7 7 7 7 7 7 7 7 7 7 7 7 6 6 5 5 4 4 4 4 5 5 5 3 3 2 2 3 2 2 1 1
6 6 4 8 5 12 6 6 1 0 1 4 3 2 6 6 7 10 10 13 16 16 15 15 17 16 15 17 16 17 16 8 10 12 14 13 13 14 12 11 12 14 13 13 14 15 14 13 14 12 10 11 11 11 10 10 10 10 9 9 7 7 7 8 8 7 7 6 7 7 7 7 7 8 7 7 7 7 6 5 5 6 5 5 4 3 3 3 3 3 2 1 1 2 3 3 2
5 8 7 6 10 6 6 8 5 5 5 10 11 9 9 8 9 8 13 18 17 18 21 22 22 19 16 16 17 15 11 13 13 14 14 15 16 15 14 13 13 16 16 16 16 14 13 13 13 12 11 12 11 11 11 11 10 9 9 7 8 6 6 6 6 6 5 7 7 7 7 7 8 7 8 7 7 7 7 6 6 5 5 4 4 4 4 4 4 5 4 4 3 0 2 1 3
7 6 4 10 2 2 6 1 1 0 4 4 1 4 5 1 6 12 14 15 13 16 18 18 18 21 20 20 20 18 16 14 16 17 18 16 16 15 14 14 15 14 14 14 14 16 14 13 13 14 13 12 11 12 12 11 10 9 7 6 6 7 5 4 5 5 6 7 9 8 7 8 8 8 8 8 7 7 7 6 5 5 5 5 6 6 5 5 4 3 3 3 2 3 2 3 2
6 8 7 7 5 4 4 5 5 5 3 1 1 2 5 2 4 6 11 12 8 8 7 7 8 11 13 10 9 13 17 18 17 15 15 16 16 18 19 17 15 15 15 15 16 15 13 17 17 17 14 14 13 12 13 10 8 8 6 4 4 4 3 5 6 7 7 8 6 7 9 8 8 8 8 8 7 8 7 6 6 6 5 6 5 5 5 5 5 5 5 4 5 5 4 2 1
8 8 12 10 3 4 2 3 4 5 6 2 3 4 4 5 9 13 8 8 12 9 12 15 14 13 13 13 15 14 13 12 14 17 19 19 18 16 16 16 16 15 16 16 16 17 16 15 15 14 12 12 12 13 13 11 11 10 9 8 9 8 9 8 11 11 8 8 9 6 5 7 8 8 8 7 7 6 6 6 6 6 5 6 6 5 5 3 4 5 5 5 5 4 4 3 3
7 12 10 6 5 4 3 4 1 4 6 5 2 7 6 5 4 7 7 13 16 10 14 16 14 13 14 14 14 15 15 14 13 13 13 15 16 16 17 17 18 18 18 16 15 15 16 14 14 15 13 12 12 12 13 11 11 10 13 13 11 11 11 9 7 6 8 7 5 7 7 6 8 8 7 7 6 6 6 6 7 6 6 6 6 5 5 6 5 5 4 5 6 4 3 4 5
13 2 8 7 7 8 5 5 8 7 3 5 1 4 5 7 8 6 7 12 14 14 15 14 14 15 16 15 15 15 15 16 15 17 17 17 18 19 20 21 19 20 19 16 16 15 16 16 15 15 13 12 12 12 14 14 13 12 12 12 11 11 11 10 7 6 5 5 7 7 6 6 7 8 7 6 6 6 6 6 6 6 6 6 6 7 7 5 4 3 4 5 4 4 5 5 5
2 7 10 7 8 6 5 6 6 4 1 10 4 4 4 5 7 3 12 8 10 14 17 16 16 17 17 17 17 17 17 17 17 16 18 19 20 20 20 19 21 21 18 17 17 17 17 17 16 15 15 13 12 14 14 15 14 13 13 11 11 10 9 8 5 5 6 6 8 6 7 7 7 7 7 6 6 7 8 7 7 6 6 7 7 6 6 6 6 6 5 5 5 5 5 4 4
3 3 3 3 2 2 4 4 4 2 2 12 10 6 6 8 5 2 5 11 14 17 19 19 18 19 19 17 17 17 15 14 15 17 17 18 18 20 21 21 20 18 17 17 18 16 16 15 16 16 17 14 13 16 16 16 16 13 12 12 14 11 9 7 6 7 7 7 8 8 7 7 6 6 6 6 6 8 7 8 8 8 6 6 7 7 7 6 5 6 6 6 6 6 5 4 5
2 5 6 5 2 1 2 1 1 3 9 14 8 7 7 10 6 8 10 9 14 13 11 12 13 14 15 16 17 16 16 16 15 16 17 18 18 19 17 17 18 16 13 14 14 14 14 15 16 17 18 15 15 17 17 18 16 14 14 15 16 14 12 10 8 7 7 7 8 8 8 8 7 6 6 6 8 8 8 9 8 8 7 7 7 7 7 7 6 6 6 5 6 7 5 5 4
4 4 4 0 6 1 2 2 2 4 16 2 6 7 9 10 3 7 10 10 17 16 17 19 19 19 19 17 17 18 18 16 16 16 16 17 15 15 14 16 15 15 13 13 13 13 13 14 14 17 16 15 14 15 16 16 15 16 15 15 16 15 13 11 12 11 10 11 10 9 8 6 6 5 6 6 8 9 8 8 8 7 7 7 8 7 7 7 5 5 5 5 5 5 4 4 4
8 4 6 8 3 1 4 3 8 14 9 1 4 8 1 18 4 8 12 10 11 16 17 19 20 22 20 18 20 18 17 16 16 16 16 16 16 17 17 18 17 15 16 16 16 15 14 14 16 18 17 16 15 15 16 17 15 15 15 15 15 13 13 13 13 12 10 10 9 9 8 8 7 6 7 8 9 10 9 9 8 8 8 7 8 8 7 6 6 6 6 6 5 6 6 5 5
9 9 7 8 7 4 6 4 2 5 3 4 2 3 10 1 5 10 11 15 15 16 17 17 19 21 21 21 20 18 17 18 19 18 17 17 17 17 18 19 17 16 17 18 17 16 15 14 16 18 19 18 16 16 17 17 17 16 15 15 14 12 13 13 12 12 11 10 10 10 10 10 9 10 9 9 8 9 9 10 9 9 8 8 9 8 7 7 7 7 6 6 6 6 5 6 6
9 4 10 8 4 5 7 5 9 5 3 1 1 6 7 4 6 10 16 16 17 16 17 17 18 19 21 23 21 19 18 18 17 17 18 19 19 19 18 18 17 17 18 18 16 16 15 15 16 18 18 17 18 18 16 18 17 17 15 15 14 12 13 12 12 11 10 11 10 10 10 9 9 9 9 8 8 10 10 8 9 8 9 9 8 8 6 7 7 6 6 6 6 5 6 6 6
5 6 6 4 17 7 3 5 3 3 1 2 3 6 5 5 3 5 7 11 12 14 16 15 16 16 16 14 11 13 17 18 18 18 19 19 19 18 17 16 17 17 18 16 17 16 16 17 17 19 20 18 18 18 17 18 17 15 16 16 15 14 12 11 10 10 10 11 11 11 11 10 9 8 7 7 9 10 9 9 9 9 9 9 8 8 8 7 7 7 6 5 6 4 6 7 7
4 9 12 12 8 6 4 3 2 1 2 8 2 5 7 6 5 7 6 6 11 13 15 15 17 18 15 12 12 15 17 18 17 19 19 20 18 17 17 17 17 17 16 17 18 18 19 18 17 18 18 16 17 18 18 16 16 16 16 16 15 14 14 13 13 14 13 11 10 10 10 10 9 8 7 7 7 9 9 10 9 9 9 9 8 7 8 8 7 7 7 6 7 5 6 7 6
7 8 10 4 4 5 5 5 2 3 5 6 0 6 5 1 9 3 5 6 11 10 14 16 17 16 14 14 13 15 17 19 22 22 20 20 19 20 19 18 19 19 20 20 20 19 18 17 18 19 18 19 18 18 18 16 16 16 15 16 15 15 14 14 13 13 12 10 10 10 9 8 9 9 8 7 7 8 9 10 9 9 9 9 8 7 8 8 7 6 7 6 6 6 7 6 6
12 9 6 8 1 7 2 3 8 4 5 4 4 3 6 9 9 2 5 7 11 10 12 12 14 14 15 14 14 14 16 15 15 16 16 17 17 19 19 19 20 20 20 20 20 19 16 16 17 18 20 21 21 18 17 15 16 14 14 16 16 15 14 13 12 12 11 11 12 11 11 11 9 8 8 9 9 8 8 10 9 10 10 8 7 8 8 7 7 7 6 6 6 7 7 7 6
3 6 7 4 6 4 6 8 3 4 6 0 7 0 11 7 8 9 8 10 12 12 9 12 16 17 16 15 15 15 16 15 17 17 18 19 20 21 21 21 20 19 18 18 18 16 18 18 18 17 17 16 15 16 15 16 16 15 14 13 14 14 13 13 12 12 12 13 13 12 12 11 10 9 9 10 9 9 9 10 10 11 11 9 7 8 7 8 7 7 7 7 7 7 7 8 6
9 5 5 1 2 2 4 1 8 6 3 4 2 9 4 5 8 11 11 11 13 12 13 13 14 15 17 16 17 16 16 15 16 17 18 20 20 20 20 20 19 18 18 17 16 18 20 18 18 18 19 18 18 18 17 16 14 14 14 15 14 14 15 13 13 13 13 13 12 11 11 10 8 10 9 10 11 11 11 10 10 10 12 10 10 9 8 7 7 8 8 8 8 8 9 7 6
12 12 12 8 6 4 7 8 0 3 6 5 5 15 2 4 3 9 11 11 11 13 14 14 14 16 15 15 15 15 15 16 17 19 19 18 18 18 18 18 16 15 15 16 16 16 17 17 18 18 18 17 19 18 17 16 14 14 16 16 15 14 14 13 15 14 14 13 12 12 11 9 11 10 11 10 12 10 9 10 9 10 11 11 11 10 8 7 8 9 8 6 7 9 8 9 7
Wind_Direction
150 153 158 159 139 142 141 221 202 158 302 272 312 206 272 114 65 353 136 108 108 215 141 120 127 139 151 167 133 103 1 148 235 147 211 164 128 133 144 134 132 132 138 151 166 135 121 155 132 128 124 122 121 122 122 122 121 121 120 119 120 119 119 119 118 119 119 117 116 116 117 117 115 113 110 109 109 106 104 101 98 95 91 89 89 91 92 101 97 89 73 56 67 75 74 77 80
149 152 145 144 145 128 192 278 277 146 283 313 249 163 264 115 22 204 214 172 182 150 135 126 115 77 81 113 133 123 41 32 42 87 69 124 128 123 144 139 141 139 145 149 137 122 125 158 135 131 127 125 124 124 123 123 124 123 122 121 120 121 120 120 120 121 120 118 117 118 120 119 116 114 113 112 110 108 106 103 100 98 93 89 89 89 95 94 99 98 102 109 85 78 78 79 75
151 148 134 130 78 262 65 194 32 15 26 269 282 212 29 319 225 264 216 176 142 121 120 108 102 88 102 116 111 22 213 72 100 109 113 140 137 151 143 140 139 137 141 143 135 131 138 145 137 134 131 128 129 127 126 126 126 124 123 122 122 123 123 123 123 122 120 118 120 122 121 120 117 117 114 113 114 116 113 111 110 104 98 94 90 98 103 104 101 105 109 102 102 100 87 78 82
145 151 143 159 160 187 289 93 68 139 238 225 300 275 193 217 265 257 41 122 124 127 127 130 117 301 125 64 121 83 89 119 136 136 138 161 166 141 141 140 139 130 129 136 139 135 139 150 140 138 133 131 132 129 129 129 128 126 125 125 126 126 126 125 125 122 120 123 124 124 123 121 120 119 120 120 120 119 119 116 109 104 97 93 91 86 84 90 90 102 114 120 114 100 96 94 94
148 158 136 67 278 206 114 277 244 125 237 201 224 277 242 243 332 78 76 107 124 135 141 114 86 21 75 106 167 141 183 103 136 141 132 112 115 145 140 135 134 136 140 145 143 142 152 152 144 139 135 135 133 131 131 131 129 126 126 127 129 128 128 128 125 122 124 126 127 127 125 123 122 124 126 124 122 120 118 115 105 94 90 88 85 83 83 73 79 90 103 115 112 108 104 106 106
133 153 191 309 324 65 140 242 235 226 236 162 236 260 210 212 107 109 111 104 105 104 115 91 126 149 66 17 5 107 133 146 162 147 145 139 138 144 138 133 136 139 144 145 145 145 158 152 146 141 139 137 135 134 134 131 130 129 129 130 130 131 131 129 126 125 127 127 128 128 126 125 128 132 131 127 123 122 116 104 93 88 81 81 84 93 91 82 85 91 105 109 115 112 109 110 111
148 142 183 250 263 159 279 259 265 240 270 182 210 232 154 145 130 122 118 96 43 76 42 101 112 101 87 118 71 72 21 121 156 150 137 138 137 140 139 137 137 140 143 145 147 147 150 152 148 146 142 141 139 138 137 135 133 132 132 133 132 134 133 130 128 129 129 130 129 130 130 131 134 136 133 128 125 119 108 90 83 76 76 79 82 74 65 70 78 90 94 95 96 115 115 110 109
169 178 169 195 297 24 253 252 255 186 273 188 228 156 158 141 143 129 145 119 160 132 116 136 123 90 64 45 123 88 66 41 94 103 121 136 139 139 141 141 138 142 144 143 146 148 154 154 151 149 146 145 143 143 140 138 136 135 136 136 136 136 136 132 130 131 131 132 132 132 135 138 139 137 131 131 127 115 97 84 76 74 72 71 73 76 77 78 73 72 84 97 93 79 89 103 108
172 260 102 131 10 7 266 244 254 214 270 279 255 192 158 143 148 138 145 86 88 104 137 138 157 99 124 86 74 90 73 98 101 118 133 138 141 142 142 145 142 143 144 145 144 147 154 157 153 153 151 148 148 147 144 140 138 139 140 139 139 139 138 134 133 134 135 136 136 137 140 143 141 137 139 134 126 110 91 76 68 71 70 71 73 75 74 71 73 74 78 87 95 81 69 78 102
156 269 291 98 103 282 288 274 228 226 223 234 220 175 150 147 140 135 127 128 135 120 92 90 71 109 124 98 109 102 126 115 116 126 137 140 140 142 140 144 144 143 143 147 147 145 158 162 156 156 154 153 152 150 147 144 144 145 144 143 143 144 140 138 137 139 140 141 141 142 144 144 144 146 147 140 127 112 87 70 62 61 59 60 65 62 63 68 71 72 68 74 87 99 86 78 86
130 225 348 290 284 289 260 277 258 298 235 233 243 171 155 141 138 130 122 111 127 121 114 110 72 122 115 96 52 96 127 121 128 141 144 145 144 145 143 143 145 146 147 149 147 146 153 168 159 159 158 157 156 153 151 149 150 150 148 148 149 146 143 141 144 144 145 146 147 148 147 150 153 158 155 153 137 121 98 65 48 43 45 49 59 62 60 61 62 68 74 75 79 84 88 90 76
84 177 114 234 225 194 242 251 296 287 276 202 261 169 158 140 131 136 135 139 142 122 153 160 158 135 94 123 120 136 130 129 133 142 144 145 142 140 135 141 147 149 149 148 146 145 153 154 169 162 162 161 160 158 155 155 156 155 154 153 153 149 147 147 149 152 152 152 154 152 154 158 165 168 172 171 159 141 115 62 40 34 33 29 37 46 51 55 68 68 75 80 79 78 88 90 80
125 150 128 80 223 155 243 284 263 282 306 249 170 172 147 147 164 154 149 127 142 140 172 241 147 160 111 138 129 140 143 139 137 145 145 144 145 144 133 139 147 152 152 150 145 150 150 157 171 167 165 165 164 162 161 160 160 160 159 158 155 153 153 154 155 159 158 158 159 159 161 165 171 180 184 188 180 179 156 6 10 22 27 24 28 37 39 44 68 76 81 82 90 89 90 110 105
133 178 139 249 182 206 226 252 273 304 293 246 151 154 162 159 168 149 138 148 175 179 157 130 148 112 92 118 144 154 153 146 142 145 146 141 139 136 140 139 149 152 154 152 152 151 152 164 170 175 166 163 166 166 167 165 164 164 164 162 160 159 160 161 163 164 164 165 166 165 166 172 179 188 197 204 205 212 261 319 339 0 25 20 19 20 23 29 48 73 85 94 92 76 86 104 122
218 199 142 242 293 352 243 192 205 169 264 169 151 146 151 124 139 151 158 155 184 118 118 125 163 116 206 168 176 171 157 150 146 146 145 139 134 137 140 145 149 152 155 157 155 159 159 160 171 161 160 161 164 163 165 170 168 170 168 167 166 165 168 168 170 170 171 172 173 171 172 178 185 195 207 214 224 238 243 295 327 357 11 11 14 10 11 10 21 47 73 90 93 83 62 78 112
215 6 126 282 263 202 268 223 216 139 256 158 159 131 105 94 146 150 185 125 133 124 145 160 227 174 148 199 141 150 146 145 146 146 140 135 130 130 138 146 151 156 159 160 161 168 159 162 160 158 160 167 160 158 159 167 176 175 173 172 171 171 175 175 176 177 177 180 180 179 179 185 192 204 214 228 242 247 277 299 316 334 349 4 4 4 358 353 349 15 56 91 76 133 195 259 239
211 41 289 188 283 164 257 197 141 209 204 145 150 145 139 147 145 37 89 76 134 164 166 156 187 65 151 142 136 137 140 142 144 142 139 137 138 141 144 148 153 158 165 170 167 167 164 164 159 155 170 164 161 161 163 170 185 180 178 176 177 177 180 182 181 182 183 188 184 185 191 157 75 43 329 357 267 325 293 300 314 319 331 346 346 341 341 337 339 341 356 353 24 222 241 241 238
155 211 214 249 240 256 237 222 194 229 136 171 165 164 132 136 166 138 98 81 54 142 109 107 31 53 109 124 125 135 139 144 150 149 148 147 150 152 157 159 161 169 168 170 173 168 168 171 164 163 168 170 163 159 169 178 194 182 171 178 178 183 185 186 185 168 187 186 195 190 131 119 121 57 327 322 24 5 4 317 311 311 318 327 323 328 329 332 336 338 332 340 302 282 279 197 321
183 178 188 248 187 228 182 253 273 128 188 166 171 164 155 167 149 177 138 149 147 150 122 104 90 92 109 126 132 142 147 150 155 156 155 157 161 163 164 163 168 166 171 172 176 175 174 171 167 166 170 171 166 167 170 181 191 163 169 173 175 184 189 186 163 177 136 158 109 135 127 113 123 160 195 254 223 266 271 289 295 304 309 310 313 314 318 328 336 330 330 331 322 302 344 108 191
219 136 218 245 216 274 253 301 289 262 146 158 156 168 145 152 151 174 150 152 163 169 149 123 135 138 139 139 142 147 153 156 160 158 159 162 165 166 166 168 169 175 173 175 173 175 173 175 174 169 171 169 170 171 168 176 177 164 165 167 171 164 177 154 154 140 158 153 150 126 131 135 142 157 257 259 263 305 286 290 297 302 316 332 320 340 350 345 327 337 333 330 343 357 43 337 226
178 210 217 242 219 235 268 227 245 251 157 151 150 144 128 171 161 174 136 134 208 210 195 163 171 157 151 152 150 154 158 162 164 162 162 164 167 169 169 171 171 170 172 164 170 180 177 175 172 173 171 172 173 175 174 178 167 159 165 169 165 156 163 140 153 148 156 162 153 139 131 155 137 157 299 318 317 305 335 306 306 308 312 306 321 322 327 325 324 324 343 346 329 336 329 290 268
151 220 229 259 300 321 263 322 255 140 151 139 145 161 189 127 150 189 157 166 193 204 202 202 154 153 153 157 158 158 163 166 168 166 171 170 170 170 166 166 166 167 168 175 179 178 180 176 176 175 173 177 178 178 176 179 162 169 173 172 163 163 163 160 155 161 155 167 161 153 132 135 129 229 262 283 280 293 290 286 270 283 299 289 302 302 307 311 310 327 320 320 318 316 352 290 268
243 236 235 235 247 264 193 259 63 116 131 153 167 187 117 169 188 194 179 185 221 207 180 158 162 159 161 154 154 162 166 170 173 173 171 171 171 174 174 175 173 174 178 181 175 179 177 178 179 173 181 176 179 177 169 180 176 176 172 170 167 178 165 161 166 165 170 172 179 164 165 174 188 207 242 256 271 282 271 270 266 262 268 278 301 305 309 316 321 327 338 319 330 329 336 35 244
238 250 228 236 214 233 252 264 204 151 158 200 180 125 164 178 197 187 203 220 16 136 152 151 152 148 150 157 167 167 170 171 176 176 176 176 174 175 173 175 177 166 178 178 179 180 180 183 180 178 182 179 179 176 175 185 176 175 178 183 179 179 170 178 177 177 171 188 188 186 185 178 189 210 232 233 247 256 260 262 256 254 258 270 288 288 307 314 318 326 312 308 330 313 307 55 194
223 248 239 262 265 259 263 255 249 190 196 181 139 166 191 190 182 144 218 219 104 130 136 142 147 152 160 160 167 168 168 171 173 174 173 173 172 166 169 174 175 176 185 183 179 181 186 183 179 182 184 183 180 178 184 186 177 176 181 182 181 191 176 187 177 168 192 190 198 193 196 199 201 218 227 233 233 246 258 265 259 263 259 266 277 274 247 284 290 298 301 315 344 54 73 257 345
233 251 276 274 265 265 259 254 206 210 187 161 168 205 203 185 101 195 209 192 146 129 135 149 153 158 168 170 169 169 172 176 172 172 176 169 170 169 176 180 180 188 192 181 179 187 184 181 184 187 186 184 181 182 187 185 184 182 186 188 180 192 188 176 179 193 198 197 206 199 208 212 213 214 226 232 221 255 259 263 262 262 263 275 257 254 218 227 256 278 283 76 97 89 261 282 304
207 243 244 255 261 268 256 240 217 200 193 173 184 204 209 192 156 248 181 168 138 140 146 156 162 168 170 169 171 175 173 176 177 169 165 171 175 179 179 180 187 189 182 188 187 186 183 181 187 188 186 187 180 187 185 188 186 192 190 184 186 194 185 186 194 198 201 206 205 203 206 222 225 216 223 227 219 243 266 266 259 257 260 245 226 241 213 221 239 247 269 87 136 178 204 269 307
288 283 287 273 278 265 267 270 253 159 219 183 186 205 199 182 231 220 164 155 150 149 156 161 169 173 172 171 172 174 179 178 171 172 175 174 180 181 181 184 185 183 187 190 189 183 182 187 187 188 186 185 185 190 189 186 191 193 192 187 195 194 185 190 198 200 208 209 209 211 212 216 229 226 219 224 219 232 242 245 251 238 241 227 218 233 227 230 236 257 210 117 136 150 130 329 308
275 281 288 290 308 299 263 241 226 173 226 188 176 63 188 178 226 172 143 150 155 154 161 167 171 175 178 174 171 176 179 178 181 182 185 183 179 181 184 184 181 184 191 187 184 183 188 185 186 188 186 187 187 190 189 189 186 189 192 194 197 196 193 194 202 204 207 208 207 210 214 216 218 223 218 219 229 221 237 245 243 232 239 225 209 222 222 222 219 237 248 118 41 31 72 12 340
333 311 227 315 333 307 287 175 182 160 229 148 126 229 218 216 211 131 150 153 149 152 166 172 174 173 174 180 181 179 179 180 189 190 183 183 182 184 183 182 184 185 181 184 183 191 188 185 187 184 188 190 191 191 190 187 189 191 196 193 200 193 198 199 209 203 206 206 208 214 218 216 219 216 214 223 216 224 231 239 247 249 234 225 211 204 216 196 209 215 232 138 91 51 344 25 12
261 289 79 240 339 269 283 93 83 133 189 155 163 215 239 219 195 162 159 155 160 167 173 175 175 176 174 181 185 185 187 189 189 187 187 185 182 183 183 180 184 183 179 183 190 190 185 185 182 188 189 192 192 194 193 193 189 191 191 195 197 194 199 205 206 208 205 211 206 219 217 218 220 218 208 215 217 215 227 236 238 242 238 214 206 205 203 187 185 213 214 100 48 296 341 342 36
353 3 295 331 192 272 293 290 192 214 201 178 164 235 245 208 187 167 163 166 164 169 174 178 178 180 179 180 186 188 191 189 191 191 191 188 184 183 183 183 182 183 185 186 188 183 189 185 185 189 188 192 195 195 196 194 193 192 193 196 196 194 201 205 206 206 205 207 209 217 216 217 218 218 215 205 215 210 215 226 235 239 232 196 203 189 171 191 196 211 218 131 235 338 317 313 17
357 176 268 277 278 272 343 324 295 225 116 201 169 227 334 242 166 163 166 165 172 169 177 180 182 182 182 184 185 188 185 192 194 194 192 189 190 188 185 182 183 185 184 184 184 184 188 188 186 189 190 192 195 196 196 196 194 193 194 197 196 196 203 207 206 204 206 205 209 215 212 213 217 214 214 206 208 207 210 223 230 222 201 187 184 181 189 184 187 207 181 98 142 207 265 314 345
250 70 221 211 228 285 282 300 337 15 137 190 234 238 227 266 159 161 169 169 170 177 181 183 184 186 187 185 186 187 191 190 196 195 193 190 190 190 187 186 183 183 187 186 185 185 187 187 189 190 190 191 193 195 196 196 196 194 194 198 197 201 206 208 205 201 208 209 203 214 209 210 213 212 210 204 208 209 206 216 219 202 177 167 176 173 202 154 155 171 218 148 145 159 172 257 264
189 202 252 281 266 215 243 281 260 13 214 207 213 233 257 343 173 167 173 174 175 184 183 184 185 188 188 191 189 190 194 198 201 196 192 191 189 189 186 185 184 185 187 185 185 186 183 187 188 191 190 188 191 192 194 196 195 196 193 195 204 206 208 209 204 205 208 205 206 210 207 208 213 210 206 197 203 210 207 209 208 193 166 167 166 180 188 182 164 152 216 218 182 191 188 210 199
179 179 201 207 232 251 225 253 283 222 283 257 216 223 237 218 198 182 172 176 181 188 179 179 188 192 193 194 195 195 198 206 200 194 193 193 192 188 187 185 187 187 184 183 185 185 186 186 188 191 192 186 184 187 188 193 193 195 196 197 208 212 209 209 209 211 205 207 208 205 206 207 210 208 203 198 202 204 198 198 200 180 172 156 169 182 204 199 209 208 229 220 245 250 194 165 135
229 175 172 236 243 269 263 273 251 290 282 254 238 232 234 213 191 188 181 174 184 176 177 187 190 192 195 198 199 201 202 206 191 192 192 193 193 190 189 186 187 186 185 183 184 188 188 188 185 193 190 182 183 186 191 191 193 196 202 204 207 204 206 207 212 210 209 209 206 204 202 206 205 206 201 194 201 202 198 192 186 179 169 172 179 204 201 201 202 190 226 226 221 253 287 115 211
223 254 256 267 245 262 262 273 273 295 345 293 314 253 245 230 214 189 176 177 189 185 185 192 193 195 198 197 199 202 207 187 183 190 195 193 193 191 189 189 186 184 190 185 189 191 190 189 192 192 185 187 190 190 190 193 196 198 196 202 201 203 202 206 213 209 210 208 207 204 203 201 202 203 200 196 199 195 187 184 185 184 175 185 193 183 192 192 182 189 163 278 45 218 247 187 180
202 220 236 258 254 263 277 255 254 237 235 264 272 263 255 218 187 189 186 191 196 192 188 191 189 192 196 199 202 202 191 194 192 200 194 192 192 190 191 191 192 193 188 189 192 188 189 192 195 190 191 189 192 190 191 197 196 198 195 194 196 205 211 211 210 204 193 204 208 205 203 201 200 204 201 195 195 193 193 183 185 180 182 175 175 189 187 191 187 190 187 203 226 35 264 186 172
188 194 183 231 216 207 295 298 2 232 165 259 255 240 287 20 182 191 204 202 202 203 203 200 192 189 193 197 195 195 195 192 196 196 195 193 192 191 192 194 195 193 192 194 191 190 190 194 193 193 193 192 191 194 196 196 196 196 197 190 191 198 198 196 200 191 194 194 208 203 202 200 199 203 199 197 196 194 189 187 172 177 182 181 183 183 186 198 185 186 184 201 149 228 239 250 167
216 200 221 233 217 228 209 261 315 315 299 256 47 345 327 243 164 221 217 208 213 216 225 233 223 218 217 216 205 200 196 195 196 193 195 195 195 196 194 194 191 194 196 195 192 192 195 195 194 193 192 192 193 193 193 188 186 190 188 174 167 192 198 179 189 210 200 200 197 191 204 194 196 201 200 198 192 194 191 186 177 180 177 190 180 187 190 198 190 191 180 175 188 198 233 265 313
232 224 217 228 168 223 297 317 10 12 311 290 195 316 291 257 220 204 192 191 218 210 205 212 209 208 204 203 204 205 211 206 200 198 197 195 198 197 197 195 194 198 199 199 196 196 196 196 194 193 193 192 194 192 187 182 189 187 179 185 193 196 207 200 205 206 197 200 206 192 177 189 194 200 201 198 193 185 186 184 180 175 180 189 194 194 188 164 183 185 190 183 193 211 190 184 276
217 235 196 196 183 212 201 248 30 290 256 281 135 195 268 324 254 222 186 199 213 207 213 214 208 206 206 208 204 203 202 201 204 208 201 200 203 200 200 197 198 198 202 197 196 198 197 194 194 192 193 194 192 189 185 187 189 192 193 197 200 201 207 219 212 199 200 203 186 183 191 189 198 198 200 194 188 185 179 179 181 186 183 183 194 188 198 202 185 195 166 180 201 174 141 199 213
238 148 130 152 180 199 210 200 199 236 248 276 250 152 240 288 261 218 201 200 211 210 219 218 212 208 211 209 206 206 203 201 200 203 202 203 201 200 200 201 198 202 200 193 196 195 194 194 191 193 194 192 190 187 187 190 193 194 196 200 203 207 210 215 199 197 178 170 191 195 183 197 199 205 201 192 186 183 178 181 184 184 180 190 188 197 204 195 170 170 181 192 168 181 183 195 214
210 137 145 152 157 180 175 167 205 222 233 271 235 180 243 247 265 239 165 197 222 223 223 221 215 212 213 210 209 208 206 202 200 200 202 202 202 204 205 204 204 203 197 193 195 194 194 193 191 192 193 192 189 187 189 194 196 195 196 196 204 212 211 214 177 171 177 176 189 191 193 199 201 207 204 188 185 183 191 190 187 185 182 190 193 197 205 190 184 171 173 177 185 194 191 201 169
222 98 72 100 97 117 154 194 190 255 185 251 254 171 230 268 275 119 195 194 210 218 219 219 216 213 212 210 210 210 208 207 206 207 206 206 207 207 206 205 206 207 200 197 196 193 192 190 191 190 195 192 189 188 191 194 196 194 196 198 204 207 203 199 173 178 182 176 191 194 197 196 202 201 199 191 185 191 192 193 196 194 187 179 194 198 194 195 181 183 187 184 178 195 204 196 202
171 144 236 262 319 317 25 102 129 337 251 244 237 186 187 272 214 184 163 210 205 217 228 233 232 228 222 216 211 210 207 206 206 207 207 208 209 210 208 209 211 207 204 204 201 196 192 191 192 192 196 193 189 190 190 194 195 194 197 198 202 204 199 191 183 186 177 177 193 195 195 203 199 199 189 194 194 191 196 198 196 198 191 188 191 189 197 201 188 184 181 174 180 195 200 196 220
180 179 158 16 309 26 230 305 71 227 258 191 190 177 166 243 249 212 207 198 198 199 210 213 215 219 219 212 210 210 208 207 206 206 210 209 209 211 205 213 212 208 205 204 203 198 195 193 193 197 199 195 192 192 193 196 195 198 200 198 201 202 194 192 195 197 187 190 192 195 198 196 201 189 184 189 195 196 196 201 200 195 192 189 194 195 198 200 182 176 168 176 189 198 191 177 201
177 119 121 169 265 84 260 90 231 221 240 227 175 149 26 238 221 201 211 222 215 206 207 211 211 217 215 212 212 208 206 205 204 207 207 207 206 205 203 210 207 201 201 203 201 198 195 195 193 196 199 195 195 192 194 196 197 200 200 200 203 199 196 197 197 199 191 193 192 193 187 200 196 188 196 197 202 195 197 198 195 194 192 195 196 193 196 177 182 176 180 176 178 182 193 191 192
166 177 155 155 193 202 216 240 309 297 305 246 161 152 243 319 267 199 199 213 211 210 216 215 211 213 211 212 211 204 203 203 206 205 206 206 205 204 203 206 203 202 201 201 199 197 195 196 196 198 200 194 194 194 195 196 199 201 201 201 200 196 200 199 200 200 195 195 191 195 195 199 197 201 196 205 196 195 202 203 197 195 192 190 193 196 183 185 179 184 180 183 182 197 187 195 205
189 113 154 188 151 162 207 186 206 215 211 240 292 119 236 165 251 204 199 202 207 213 212 215 215 215 213 213 208 200 201 204 206 205 206 207 208 204 202 204 202 201 201 200 199 199 195 198 196 200 201 198 196 197 196 198 200 201 201 201 199 197 199 198 202 200 194 195 197 197 200 199 200 202 199 198 183 195 200 200 200 194 193 191 191 194 184 184 182 182 187 191 192 188 191 194 208
187 153 94 145 220 122 159 200 159 235 329 317 173 206 197 189 251 302 230 202 205 208 215 216 221 224 224 223 202 197 203 205 204 206 209 210 208 204 203 204 204 202 199 198 200 199 199 200 197 199 200 197 197 198 201 200 201 200 201 200 201 199 199 198 199 198 199 197 197 198 202 199 201 198 192 176 188 191 197 200 199 199 193 192 190 185 182 181 179 185 190 184 200 175 192 194 209
213 125 201 213 91 142 256 284 207 106 14 253 194 302 297 296 321 236 230 229 212 202 211 215 222 225 223 218 201 202 205 204 202 207 207 208 205 204 205 204 203 201 198 198 199 198 200 199 198 200 202 200 199 200 201 202 202 202 203 202 200 199 199 198 199 199 198 196 198 201 203 202 196 190 185 179 177 190 193 196 197 199 195 193 189 188 184 184 181 187 189 188 200 187 191 206 205
123 188 213 85 103 137 158 226 346 236 226 264 178 218 290 324 263 283 188 200 220 206 211 213 219 225 221 222 210 205 204 204 204 206 205 204 202 202 203 204 202 200 198 200 201 198 199 198 198 199 200 200 201 200 202 201 201 203 204 203 203 201 200 202 200 199 196 193 199 201 202 198 198 193 183 180 177 180 190 193 195 195 196 195 192 187 184 183 180 192 191 193 199 188 200 204 205
175 204 151 148 207 190 272 131 243 225 248 284 275 233 244 196 235 338 204 204 231 218 213 213 223 226 225 224 219 212 213 211 208 208 206 205 203 205 204 205 204 202 200 199 200 196 195 197 201 200 201 203 201 199 201 201 200 202 202 201 200 201 202 203 201 198 193 197 200 200 199 201 193 182 180 177 179 182 185 193 190 195 196 195 193 193 186 182 183 191 186 195 193 194 204 210 204
265 78 171 175 127 176 155 197 157 142 247 60 289 323 249 198 207 178 220 216 219 220 215 212 214 218 217 219 217 212 212 208 206 205 205 205 204 204 202 203 202 201 200 201 198 194 196 198 198 202 206 206 204 203 202 204 203 202 202 200 202 202 201 200 198 195 198 201 202 199 199 195 191 184 187 182 183 183 183 189 194 197 197 198 191 196 187 184 182 195 189 192 195 192 202 211 206
211 201 195 196 207 239 144 142 181 185 189 201 257 280 269 238 197 174 203 210 218 209 214 216 218 219 216 215 215 215 213 209 207 205 205 205 205 205 205 205 204 201 200 197 192 193 198 196 197 199 200 201 203 204 202 205 200 203 200 199 199 197 200 199 199 198 200 203 202 201 199 196 183 189 182 183 187 188 186 187 187 193 197 194 197 196 193 186 186 194 201 202 198 194 206 213 205
196 191 209 189 157 140 170 254 331 162 187 220 152 251 265 269 176 186 194 212 210 216 212 216 220 220 217 218 220 219 216 211 207 207 205 203 203 204 205 205 203 198 198 194 194 197 197 195 199 199 200 202 204 203 203 202 199 200 201 199 198 197 198 197 199 198 201 202 201 200 194 185 191 190 184 186 190 187 183 184 186 193 197 198 197 198 190 186 189 199 203 198 201 198 208 218 206